Molniya-1

operational
NORAD ID: 13012 Int'l Des: 1981-123 Owner: GUKOS Country: SU
MEOELLIPTICALHEO_ELLIPTICALSEMI_SYNCMOLNIYA

Über Molniya-1

Beschreibung wird geladen...

Live-Position

3D-Globus wird geladen...

Nächste Überflüge

Höhenverlauf

Altitude vs Time

uPlot chart will show altitude changes over time

Zweizeiliger Elementsatz

1 13012U 81123A 26060.03456870 -.00001322 00000-0 98132-3 0 9994
2 13012 61.6637 85.4346 7405259 274.4080 12.4510 2.00783360323713
Epoch: 1. März 2026 • Age: 79 hours

Aktueller Status

Höhe 39239.3 km
Geschwindigkeit 1.57 km/s
Subsatellitenpunkt 60.10°N, 70.79°W
Startdatum 23. Dez. 1981
Alter 44.1 years
Typ other

Technische Details

Klassifizierung Payload
Masse 1650.00 kg
Trockenmasse 1620.00 kg
Gesamtmasse 1650.00 kg
Länge 4.40 m
Durchmesser 1.40 m
Spannweite 8.60 m
Form Cyl + 6 Pan
Hersteller NPOPM
Bus-Typ Molniya-1
Phasenstatus In Orbit
Besitzer/Staat GUKOS/SU

Große Konstellationen

Loading constellations...